When you browse on this site, cookies collect data to enhance your experience and personalize the content and advertising you see.
Visit our Privacy Policy to learn more. By continuing to use the site, you agree to this use of cookies and data.
  • In Latvia
  • List of Countries
  • For 7 days
  • Water Temperature
  • Weather Map
  • Weather Widgets
  • user-avatar
    Login

    Hourly Weather Elbasan

    Today, 19 February, Wednesday

    Time Temperature Precipitation Wind Pressure Humidity
    00:00 +9°C° 0 mm 1 mps 738 mmHg 83%
    01:00 +9°C° 0 mm 1 mps 738 mmHg 84%
    02:00 +9°C° 0 mm 1 mps 737 mmHg 85%
    03:00 +9°C° 0 mm 1 mps 737 mmHg 85%
    04:00 +9°C° 0 mm 1 mps 737 mmHg 85%
    05:00 +9°C° 0 mm 1 mps 737 mmHg 85%
    06:00 +9°C° 0 mm 1 mps 737 mmHg 85%
    07:00 +9°C° 0 mm 1 mps 737 mmHg 85%
    08:00 +10°C° 0 mm 1 mps 737 mmHg 80%
    09:00 +11°C° 0 mm 1 mps 737 mmHg 75%
    10:00 +13°C° 0 mm 1 mps 737 mmHg 70%
    11:00 +13°C° 0 mm 1 mps 737 mmHg 69%
    12:00 +14°C° 0 mm 1 mps 736 mmHg 67%
    13:00 +15°C° 0 mm 2 mps 736 mmHg 65%
    14:00 +14°C° 0.1 mm 2 mps 735 mmHg 69%
    15:00 +14°C° 0.1 mm 2 mps 735 mmHg 72%
    16:00 +14°C° 0.1 mm 2 mps 734 mmHg 75%
    17:00 +13°C° 0.3 mm 2 mps 734 mmHg 81%
    18:00 +12°C° 0.3 mm 1 mps 734 mmHg 87%
    19:00 +11°C° 0.3 mm 1 mps 734 mmHg 92%
    20:00 +11°C° 0.5 mm 1 mps 734 mmHg 92%
    21:00 +11°C° 0.5 mm 1 mps 734 mmHg 92%
    22:00 +10°C° 0.5 mm 1 mps 734 mmHg 92%
    23:00 +10°C° 0.5 mm 1 mps 733 mmHg 92%

    Tomorrow, 20 February, Thursday

    Time Temperature Precipitation Wind Pressure Humidity
    00:00 +10°C° 0.5 mm 1 mps 733 mmHg 92%
    01:00 +10°C° 0.5 mm 1 mps 733 mmHg 92%
    02:00 +9°C° 0.7 mm 1 mps 733 mmHg 93%
    03:00 +9°C° 0.7 mm 1 mps 733 mmHg 94%
    04:00 +9°C° 0.7 mm 1 mps 732 mmHg 95%
    05:00 +9°C° 1.2 mm 1 mps 732 mmHg 94%
    06:00 +9°C° 1.2 mm 1 mps 732 mmHg 94%
    07:00 +8°C° 1.2 mm 0 mps 733 mmHg 94%
    08:00 +9°C° 0.4 mm 1 mps 733 mmHg 89%
    09:00 +10°C° 0.4 mm 1 mps 733 mmHg 84%
    10:00 +9°C° 0.4 mm 2 mps 734 mmHg 80%
    11:00 +10°C° 0.1 mm 2 mps 734 mmHg 71%
    12:00 +12°C° 0.1 mm 2 mps 734 mmHg 63%
    13:00 +13°C° 0.1 mm 2 mps 734 mmHg 55%
    14:00 +12°C° 0 mm 2 mps 734 mmHg 55%
    15:00 +12°C° 0 mm 2 mps 734 mmHg 55%
    16:00 +12°C° 0 mm 2 mps 734 mmHg 56%
    17:00 +10°C° 0 mm 2 mps 735 mmHg 60%
    18:00 +8°C° 0 mm 2 mps 735 mmHg 64%
    19:00 +7°C° 0 mm 2 mps 736 mmHg 67%
    20:00 +7°C° 0 mm 2 mps 736 mmHg 68%
    21:00 +6°C° 0 mm 2 mps 736 mmHg 69%
    22:00 +6°C° 0 mm 2 mps 737 mmHg 69%
    23:00 +5°C° 0 mm 2 mps 737 mmHg 70%

    Day after tomorrow, 21 February, Friday

    Time Temperature Precipitation Wind Pressure Humidity
    00:00 +5°C° 0 mm 2 mps 737 mmHg 71%
    01:00 +5°C° 0 mm 2 mps 737 mmHg 71%
    02:00 +4°C° 0 mm 2 mps 737 mmHg 71%
    03:00 +4°C° 0 mm 2 mps 737 mmHg 72%
    04:00 +4°C° 0 mm 2 mps 737 mmHg 72%
    05:00 +4°C° 0 mm 2 mps 738 mmHg 71%
    06:00 +4°C° 0 mm 2 mps 738 mmHg 71%
    07:00 +4°C° 0 mm 2 mps 738 mmHg 70%
    14:00 +12°C° 0 mm 1 mps 739 mmHg 37%
    15:00 +12°C° 0 mm 1 mps 739 mmHg 37%
    16:00 +12°C° 0 mm 1 mps 738 mmHg 40%
    17:00 +11°C° 0 mm 1 mps 739 mmHg 44%
    18:00 +9°C° 0 mm 1 mps 739 mmHg 48%
    19:00 +8°C° 0 mm 1 mps 740 mmHg 52%
    20:00 +7°C° 0 mm 1 mps 740 mmHg 52%
    21:00 +6°C° 0 mm 2 mps 741 mmHg 52%
    22:00 +6°C° 0 mm 2 mps 741 mmHg 52%
    23:00 +6°C° 0 mm 2 mps 741 mmHg 52%

    22 February, Saturday

    Time Temperature Precipitation Wind Pressure Humidity
    00:00 +5°C° 0 mm 2 mps 741 mmHg 53%
    01:00 +5°C° 0 mm 2 mps 742 mmHg 53%
    02:00 +5°C° 0 mm 2 mps 742 mmHg 55%
    03:00 +5°C° 0 mm 2 mps 742 mmHg 56%
    04:00 +5°C° 0 mm 2 mps 742 mmHg 57%
    05:00 +4°C° 0 mm 2 mps 742 mmHg 60%
    06:00 +4°C° 0 mm 2 mps 742 mmHg 62%
    07:00 +4°C° 0 mm 2 mps 743 mmHg 64%
    08:00 +6°C° 0 mm 2 mps 743 mmHg 59%
    09:00 +8°C° 0 mm 2 mps 743 mmHg 53%
    10:00 +9°C° 0 mm 2 mps 744 mmHg 48%
    11:00 +10°C° 0 mm 2 mps 743 mmHg 42%
    12:00 +12°C° 0 mm 2 mps 743 mmHg 37%
    13:00 +12°C° 0 mm 2 mps 743 mmHg 32%
    14:00 +11°C° 0 mm 3 mps 743 mmHg 33%
    15:00 +10°C° 0 mm 3 mps 743 mmHg 34%
    16:00 +10°C° 0 mm 3 mps 743 mmHg 35%
    17:00 +9°C° 0 mm 2 mps 743 mmHg 39%
    18:00 +7°C° 0 mm 2 mps 744 mmHg 42%
    19:00 +5°C° 0 mm 2 mps 744 mmHg 46%
    20:00 +5°C° 0 mm 2 mps 745 mmHg 47%
    21:00 +5°C° 0 mm 2 mps 745 mmHg 48%
    22:00 +4°C° 0 mm 2 mps 745 mmHg 49%
    23:00 +4°C° 0 mm 2 mps 745 mmHg 50%

    23 February, Sunday

    Time Temperature Precipitation Wind Pressure Humidity
    00:00 +4°C° 0 mm 2 mps 745 mmHg 50%
    01:00 +3°C° 0 mm 2 mps 745 mmHg 51%
    02:00 +3°C° 0 mm 2 mps 745 mmHg 52%
    03:00 +3°C° 0 mm 2 mps 745 mmHg 52%
    04:00 +3°C° 0 mm 2 mps 745 mmHg 52%
    05:00 +3°C° 0 mm 2 mps 745 mmHg 52%
    06:00 +3°C° 0 mm 2 mps 745 mmHg 51%
    07:00 +5°C° 0 mm 1 mps 745 mmHg 51%
    08:00 +7°C° 0 mm 1 mps 745 mmHg 45%
    09:00 +9°C° 0 mm 1 mps 745 mmHg 38%
    10:00 +10°C° 0 mm 0 mps 745 mmHg 32%
    11:00 +11°C° 0 mm 1 mps 744 mmHg 33%
    12:00 +12°C° 0 mm 1 mps 744 mmHg 33%
    13:00 +13°C° 0 mm 2 mps 743 mmHg 34%
    14:00 +13°C° 0 mm 1 mps 743 mmHg 39%
    15:00 +12°C° 0 mm 1 mps 743 mmHg 44%
    16:00 +12°C° 0 mm 1 mps 742 mmHg 49%
    17:00 +11°C° 0 mm 1 mps 742 mmHg 52%
    18:00 +10°C° 0 mm 1 mps 742 mmHg 56%
    19:00 +8°C° 0 mm 0 mps 743 mmHg 59%
    20:00 +9°C° 0 mm 1 mps 742 mmHg 58%
    21:00 +9°C° 0 mm 1 mps 742 mmHg 57%
    22:00 +9°C° 0 mm 1 mps 742 mmHg 56%
    23:00 +9°C° 0 mm 1 mps 742 mmHg 56%

    24 February, Monday

    Time Temperature Precipitation Wind Pressure Humidity
    00:00 +7°C° 0 mm 0 mps 742 mmHg 55%
    01:00 +7°C° 0 mm 0 mps 741 mmHg 55%
    02:00 +7°C° 0 mm 0 mps 741 mmHg 55%
    03:00 +7°C° 0 mm 0 mps 740 mmHg 55%
    04:00 +7°C° 0 mm 0 mps 740 mmHg 55%
    05:00 +7°C° 0 mm 0 mps 740 mmHg 55%
    06:00 +7°C° 0 mm 0 mps 740 mmHg 56%
    07:00 +7°C° 0 mm 0 mps 739 mmHg 56%
    08:00 +10°C° 0 mm 1 mps 739 mmHg 53%
    09:00 +12°C° 0 mm 1 mps 739 mmHg 51%
    10:00 +14°C° 0 mm 1 mps 739 mmHg 48%
    11:00 +14°C° 0 mm 2 mps 738 mmHg 50%
    12:00 +15°C° 0 mm 2 mps 738 mmHg 51%
    13:00 +14°C° 0 mm 3 mps 738 mmHg 53%
    14:00 +14°C° 0 mm 3 mps 738 mmHg 58%
    15:00 +13°C° 0 mm 3 mps 738 mmHg 63%
    16:00 +14°C° 0 mm 2 mps 738 mmHg 68%
    17:00 +12°C° 0 mm 2 mps 738 mmHg 73%
    18:00 +11°C° 0 mm 1 mps 739 mmHg 78%
    19:00 +10°C° 0 mm 1 mps 739 mmHg 82%
    20:00 +10°C° 0 mm 1 mps 740 mmHg 80%
    21:00 +10°C° 0 mm 1 mps 740 mmHg 78%
    22:00 +10°C° 0 mm 1 mps 740 mmHg 76%
    23:00 +9°C° 0 mm 2 mps 740 mmHg 73%
    Show more